www.pogodaiklimat.ru

Архив погоды в Сургуте (Ханты-Мансийский АО, Россия)

Время
(UTC), дата
12 26.03
15 26.03
18 26.03
21 26.03
03 27.03
06 27.03
09 27.03
12 27.03
15 27.03
18 27.03
21 27.03
00 28.03
03 28.03
06 28.03
09 28.03
12 28.03
15 28.03
18 28.03
21 28.03
00 29.03
03 29.03
06 29.03
09 29.03
15 29.03
18 29.03
21 29.03
00 30.03
06 30.03
09 30.03
18 30.03
21 30.03
00 31.03
03 31.03
09 31.03
12 31.03
15 31.03
18 31.03
21 31.03
00 1.04
03 1.04
06 1.04
09 1.04
12 1.04
15 1.04
18 1.04
21 1.04
00 2.04
03 2.04
06 2.04
Ветер
(напр.,м/с)
Видим. Явления Облачность Т
(С)
Тd
(С)
f
(%)
Тe
(С)
Тes
(С)
Комфортность P
(гПа)
Po
(гПа)
Тmin
(С)
Tmax
(С)
R
(мм)
R24
(мм)
S
(см)
ЮЗ 7-10
{10}
9000 м слаб. дождь со снегом 10/10 120 м
[Ns]
+2.1 +1.5 96 -5 -5 по сезону 994.7 987.5
З 8-11
{12}
10 км в посл. час дождь со снегом 10/10 930 м
[Ns]
+2.3 +1.2 92 -5 -5 по сезону 996.3 989.1 +2.5
ЮЗ 5
{12}
10 км {снег} 8/0 2000 м
[Ac trans]
+2.3 +1.2 92 -3 -3 тепло 997.3 990.1
З 5 10 км 8/0
[Ac trans]
+2.7 +0.7 87 -3 -3 тепло 998.4 991.2
З 10-14
{14}
10 км 5/0
[Ci fib]
+2.3 -2.9 68 -5 -5 тепло 1003.1 995.8 +1.5
СЗ 9-11
{15}
10 км 8/0
[Ci fib]
+0.7 -6.0 61 -6 -6 по сезону 1007.4 1000.0
СЗ 6-10
{12}
10 км 5/0
[Ci fib]
-0.6 -12.9 39 -6 -5 по сезону 1010.9 1003.5
С 4
{12}
10 км 8/0
[Ac trans]
-2.4 -9.1 60 -8 -8 по сезону 1013.2 1005.7
В 4 10 км 10/4 1500 м
[Sc As op]
-4.0 -9.5 66 -10 -10 по сезону 1013.9 1006.3 +2.6
В 7 10 км 10/8 840 м
[Sc As op]
-3.9 -11.1 57 -11 -11 по сезону 1013.0 1005.5
В 8-10
{12}
900 м сильн. снег 10/10 400 м
[Frnb Ns]
-5.7 -7.3 88 -15 -15 прохладно 1010.8 1003.2
В 10-14
{13}
2000 м снег 10/10 400 м
[Ns]
-6.2 -8.0 87 -16 -16 прохладно 1007.8 1000.2
В 9-12
{15}
6000 м слаб. снег 10/10 210 м
[Ns]
-6.1 -7.4 90 -16 -16 холодно 1005.2 997.7 -6.4
В 7-11
{15}
9000 м слаб. снег 10/10 120 м
[Ns]
-4.7 -5.4 95 -13 -13 прохладно 1002.0 994.5
ЮВ 4 10 км {снег} 10/10 120 м
[Ns]
-1.4 -2.6 92 -7 -7 по сезону 999.6 992.2
Ю 2 10 км 9/6 800 м
[Sc Ac trans]
+2.3 +0.4 87 -1 -1 тепло 998.8 991.6
З 4 10 км 9/9 720 м
[Sc]
+4.9 +1.1 76 +1 +1 тепло 998.8 991.6 +5.4
СЗ 5 9000 м слаб. крупа {ливн. снег} 9/9 240 м
[Cb cap]
-0.8 -2.1 91 -7 -7 по сезону 998.9 991.6
СЗ 7 7000 м слаб. ливневой снег 9/9 270 м
[Cb cap]
-5.4 -7.0 88 -14 -14 прохладно 1001.2 993.7
СЗ 7-11
{11}
2800 м слаб. ливневой снег {метель} 9/9 300 м
[Cb cap]
-9.4 -11.9 82 -18 -18 холодно 1005.4 997.8
СЗ 8-13
{11}
8000 м метель {ливн. снег} 6/4 270 м
[St Ac trans]
-11.0 -14.0 78 -21 -21 очень
холодно
1010.6 1002.9 -11.6
СЗ 8
{12}
10 км позёмок {снег} 6/0
[Ac trans]
-7.0 -11.1 73 -16 -15 очень
холодно
1014.9 1007.2
СЗ 8
{12}
10 км {метель} 4/0
[Ci fib]
-5.6 -12.7 57 -14 -13 холодно 1017.8 1010.2
ЮЗ 3 10 км 9/0
[Ac trans]
-6.3 -13.6 56 -12 -12 прохладно 1019.1 1011.4 -5.1
ЮЗ 4 10 км 9/9 1260 м
[Sc]
-6.6 -12.4 63 -13 -13 прохладно 1018.0 1010.3
СЗ 9-14
{15}
1300 м сильная метель {ливн. снег} 9/9 400 м
[Cb cap]
-9.6 -11.7 85 -20 -20 очень
холодно
1020.5 1012.7
С 6
{15}
10 км позёмок {ливн. снег, метель} 8/4 200 м
[St Ci fib]
-12.1 -14.5 82 -21 -21 очень
холодно
1025.7 1017.8
СЗ 8-11
{13}
10 км ясно -10.0 -15.3 65 -20 -19 очень
холодно
1031.6 1023.7
СЗ 7 10 км ясно -9.0 -16.6 54 -18 -16 очень
холодно
1033.4 1025.5
З 4 10 км 1/0 -13.3 -16.4 77 -21 -21 очень
холодно
1036.4 1028.4
СЗ 3 10 км 1/0 -12.9 -16.4 75 -19 -19 холодно 1037.4 1029.4
СЗ 1 10 км 3/0
[Ci fib]
-16.7 -18.3 87 -19 -19 холодно 1039.2 1031.0
штиль 0 10 км туман местами 8/3 300 м
[St Ci fib]
-11.9 -13.2 90 -12 -10 по сезону 1040.3 1032.3 -18.9
ЮЗ 4 10 км 3/0
[Ci fib]
-2.6 -12.7 46 -8 -4 по сезону 1039.5 1031.8
ЮВ 4 10 км 4/0
[Ci fib]
-1.7 -11.6 47 -7 -6 по сезону 1037.8 1030.1
ЮВ 3 10 км 6/0
[Ac trans]
-4.6 -11.6 58 -10 -10 прохладно 1037.2 1029.4 -1.3
Ю 4 10 км 6/0
[Ci fib]
-4.3 -12.9 51 -10 -10 по сезону 1035.5 1027.8
Ю 3 10 км 6/0
[Ci fib]
-3.5 -12.3 50 -8 -8 по сезону 1034.0 1026.3
Ю 5 10 км 6/0
[Ci fib]
-4.4 -11.7 57 -11 -11 по сезону 1032.9 1025.2
Ю 7-11
{11}
10 км 5/0
[Ci fib]
-3.9 -10.9 58 -12 -11 по сезону 1031.5 1023.8 -5.0
Ю 8-12
{11}
10 км 5/0
[Ac trans]
+0.8 -9.5 46 -6 -5 по сезону 1029.2 1021.7
Ю 7-12
{15}
10 км 9/0
[Ac trans]
+4.0 -8.2 41 -1 -0 тепло 1027.2 1019.8
Ю 8-14
{15}
10 км 10/0 2000 м
[As op]
+4.0 -7.5 43 -1 -1 тепло 1025.7 1018.3
Ю 8-12
{14}
10 км в посл. час ливневой дождь 10/0 2000 м
[As op]
+4.0 -6.5 46 -1 -1 тепло 1024.1 1016.7 +4.4
Ю 8-11
{14}
10 км в посл. час ливневой дождь 10/0 2000 м
[As op]
+3.3 -5.8 51 -3 -3 тепло 1023.1 1015.7
Ю 8-11
{11}
10 км 10/0
[Ci sp]
+1.9 -5.8 57 -4 -4 тепло 1021.6 1014.2
ЮЗ 8-10
{11}
10 км 4/0
[Ci fib]
+0.8 -6.0 60 -6 -6 тепло 1020.5 1013.0
ЮЗ 7
{13}
10 км 9/4 1020 м
[Sc Ac trans]
+2.1 -4.8 60 -4 -4 тепло 1021.0 1013.6 +0.6
ЮЗ 7-11
{13}
10 км 8/0
[Ci sp]
+4.2 -3.0 59 -1 +1 тепло 1022.3 1014.9
Местоположение метеостанции Сургут (Ханты-Мансийский АО, Россия): широта 61.33 долгота 73.42 высота над уровнем моря 62 м.
В архиве по умолчанию представлена погода в Сургуте за последнюю неделю. Архивные данные за месяц целиком и за предыдущие месяцы, начиная с января 2011 года, Вы можете получить, выбрав интересующий диапазон дат из раскрывающегося списка и нажав кнопку "Найти!".
*Определитесь, кто Вы:
Внимание! Время в таблицах - всемирное. Для получения местного времени необходимо прибавить поправку, которая равна 5 ч.
Смотрите также архив погоды в соседних городах и на ближайших метеорологических станциях:
Партнеры нашего сайта:
Лавилин купить
Режим работы магазина, условия доставки. Каталог товаров.
лавилин.рф

Психолог пермь консультация
Консультации. Лекции, семинары
natabykova.ru

     
Пояснения к столбцам:
  • Ветер - указаны скорость ветра в м/с - средняя за 10 мин, порывы в срок и между сроками (в фигурных скобках) и направление, откуда дует ветер: С - северный,
  • СВ - северо-восточный, В - восточный, ЮВ - юго-восточный, Ю - южный, ЮЗ - юго-западный, З - западный, СЗ - северо-западный.
  • Видимость - горизонтальная дальность видимости в метрах или километрах. При видимости от 1 до 10 км при отсутствии осадков обычно наблюдается дымка, при ухудшении видимости до 1 км и менее - туман. В сухую погоду видимость может ухудшаться дымом, пылью или мглою.
  • Явления - указаны атмосферные явления, наблюдавшиеся в срок или в последний час перед сроком; фигурными скобками обозначены явления, наблюдавшиеся между сроками (за 1-3 часа до срока); квадратными скобками обозначены град или гололедные отложения с указанием их диаметра в мм.
  • Облачность - указаны через наклонную черту общая и нижняя облачность в баллах и высота нижней границы облаков в метрах; квадратными скобками обозначены формы облаков: Ci - перистые, Cs - перисто-слоистые, Cc - перисто-кучевые, Ac - высококучевые, As - высокослоистые, Sc - слоисто-кучевые, Ns - слоисто-дождевые, Cu - кучевые, Cb - кучево-дождевые. Подробнее классификацию облаков см. в Атласе облаков (PDF).
  • T - Температура воздуха - температура, измеренная на высоте 2 м над землей.
  • Td - Температура точки росы - температура, при понижении до которой содержащийся в воздухе водяной пар достигнет насыщения.
  • f - Относительная влажность воздуха - влажноcть воздуха, измеренная на высоте 2 м над землей.
  • Te - Эффективная температура - температура, которую ощущает одетый по сезону человек в тени. Характеристика душности погоды. При расчете учитывается влияние влажности воздуха и скорости ветра на теплоощущения человека.
  • Tes - Эффективная температура на солнце - температура, которую ощущает человек, с поправкой на солнечный нагрев. Характеристика знойности погоды. Зависит от высоты солнца над горизонтом, облачности и скорости ветра. Ночью, в пасмурную погоду, а также при ветре 12 м/с и более поправка равна нулю.
  • P - Атмосферное давление - приведенное к уровню моря атмосферное давление.
  • Po - Атмосферное давление - измеренное на уровне метеостанции атмосферное давление.
  • Tmin - Минимальная температура - минимум температуры воздуха на высоте 2 м над землей.
  • Tmax - Максимальная температура - максимум температуры воздуха на высоте 2 м над землей.
  • R - Количество осадков - Количество выпавших осадков за период времени, мм. При наведении курсора мыши на число - период времени, за который выпало указанное количество осадков.
  • R24 - Количество осадков - Количество выпавших осадков за 24 часа, мм.
  • S - Снежный покров - Высота снежного покрова, см. При наведении курсора мыши на число - состояние снежного покрова и степень покрытия местности в баллах.